カタログに戻る

STARLINK-34298

運用中通信VLEO
NORAD 64269·PAYLOAD·🇺🇸 United States

打ち上げ Jun 4, 2025 から Vandenberg Space Force Base

Loading…

次のパス (今後24時間)

TLE

最新Source: CelesTrak SupGP

元期: Sep 15, 2026, 02:49 UTC

1 64269C 25120P   26258.11784722  .00040069  00000+0  11836-2 0  2589
2 64269  53.1595 311.0740 0001231  89.8227 117.0174 15.34376236    18

AllMySatでSTARLINK-34298をリアルタイム追跡

Download on the App Store